Tracking 30995 objects as of 5-Jul-2025
HD Live streaming from Space Station
objects crossing your sky now

FENGYUN 1C DEB

Track FENGYUN 1C DEB now!
10-day predictions


NORAD ID: 30320
Int'l Code: 1999-025AAH
Perigee: 843.5 km
Apogee: 969.1 km
Inclination: 99.2 °
Period: 103.0 minutes
Semi major axis: 7277 km
RCS: 0.0266 m2 (small)
Launch date: May 10, 1999
Source: People's Republic of China (PRC)
Launch site: Taiyaun Space Center, China (TSC)

Note: This is SATELLITE DEBRIS
Your satellite tracking list
Your tracking list is empty




NASA's NSSDC Master Catalog

Two Line Element Set (TLE):
1 30320U 99025AAH 25186.39457384  .00000398  00000-0  30029-3 0  9995
2 30320  99.2091 245.2150 0086346  14.8514  46.0688 13.98454300941754
Source of the keplerian elements: AFSPC